This is the latest recevied weather packets stored in our database for station/object JS2WAD-13. If no packets are shown the sender has not sent any weather packets the latest 10 day(s).
| Time | Temp. | Humidity | Pressure | Rain* | Wind** | Luminosity | Snow |
|---|---|---|---|---|---|---|---|
| 1778136677 | 28.33° C | 44% | 900 hPa | 0 mm | - | 577 W/m² | - |
| 1778136377 | 28.33° C | 44% | 900.2 hPa | 0 mm | - | 401 W/m² | - |
| 1778136077 | 28.33° C | 44% | 900.1 hPa | 0 mm | - | 114 W/m² | - |
| 1778135777 | 28.33° C | 45% | 900.2 hPa | 0 mm | - | 90 W/m² | - |
| 1778135477 | 28.33° C | 45% | 900.4 hPa | 0 mm | - | 90 W/m² | - |
| 1778135177 | 28.33° C | 45% | 900.4 hPa | 0 mm | - | 88 W/m² | - |
| 1778134877 | 28.33° C | 45% | 900.4 hPa | 0 mm | - | 88 W/m² | - |
| 1778134577 | 28.33° C | 45% | 901.1 hPa | 0 mm | - | 90 W/m² | - |
| 1778134277 | 28.33° C | 45% | 900.7 hPa | 0 mm | - | 90 W/m² | - |
| 1778133977 | 28.33° C | 45% | 900.6 hPa | 0 mm | - | 90 W/m² | - |
| 1778133677 | 28.33° C | 46% | 900.7 hPa | 0 mm | - | 91 W/m² | - |
| 1778133377 | 28.33° C | 45% | 900.9 hPa | 0 mm | - | 239 W/m² | - |
| 1778133077 | 28.33° C | 46% | 900.9 hPa | 0 mm | - | 759 W/m² | - |
| 1778132777 | 28.33° C | 45% | 900.8 hPa | 0 mm | - | 775 W/m² | - |
| 1778132477 | 28.33° C | 46% | 900.8 hPa | 0 mm | - | 789 W/m² | - |
| 1778132177 | 28.33° C | 46% | 900.9 hPa | 0 mm | - | 780 W/m² | - |
| 1778131877 | 28.33° C | 46% | 901.2 hPa | 0 mm | - | 533 W/m² | - |
| 1778131577 | 28.33° C | 46% | 901.1 hPa | 0 mm | - | 128 W/m² | - |
| 1778131277 | 28.33° C | 46% | 901.1 hPa | 0 mm | - | 100 W/m² | - |
| 1778130977 | 28.33° C | 46% | 901.2 hPa | 0 mm | - | 102 W/m² | - |
| 1778130677 | 28.33° C | 46% | 901.6 hPa | 0 mm | - | 118 W/m² | - |
| 1778130377 | 28.33° C | 47% | 901.5 hPa | 0 mm | - | 566 W/m² | - |
| 1778130077 | 28.33° C | 46% | 901.6 hPa | 0 mm | - | 874 W/m² | - |
| 1778129777 | 28.33° C | 46% | 901.7 hPa | 0 mm | - | 896 W/m² | - |
| 1778129477 | 28.33° C | 46% | 901.8 hPa | 0 mm | - | 902 W/m² | - |
* Rain latest hour (hover to see other rain measurements)
** Current wind speed in m/s (hover to see current wind gust speed)